This demonstration page uses our WeatherBlox Daily Observations layout. Learn more.

Left ArrowRight Arrow

Hourly Observations for September 6, 2020

Temp ( °F °C ) Dew Point ( °F °C ) Humidity (%) Winds ( mph kmh ) Pressure ( in mb ) Visibility ( mi km ) Precip ( " mm )
12:51 am 00:51 Clear 82 27.8 43 6.1 25 25 ESE 10 17 29.96 1015 10 16.0934 0 0
1:51 am 01:51 Clear 80 26.7 45 7.2 29 29 SE 8 13 29.97 1015 10 16.0934 0 0
2:51 am 02:51 Clear 80 26.7 46 7.8 30 30 SE 7 11 29.98 1015 10 16.0934 0 0
3:51 am 03:51 Clear 76 24.4 45 7.2 33 33 E 6 9 29.98 1015 10 16.0934 0 0
4:51 am 04:51 Clear 75 23.9 45 7.2 34 34 SSE 6 9 30 1016 10 16.0934 0 0
5:51 am 05:51 Clear 77 25 51 10.6 40 40 SE 9 15 30.01 1016 10 16.0934 0 0
6:51 am 06:51 Sunny 79 26.1 51 10.6 38 38 ESE 9 15 30.01 1016 10 16.0934 0 0
7:51 am 07:51 Sunny 84 28.9 51 10.6 32 32 SE 10 17 30.01 1016 10 16.0934 0 0
8:51 am 08:51 Sunny 87 30.6 52 11.1 30 30 ESE 8 13 30.01 1016 10 16.0934 0 0
9:51 am 09:51 Sunny 89 31.7 54 12.2 30 30 SSE 6 9 29.99 1016 10 16.0934 0 0
10:51 am 10:51 Sunny 92 33.3 55 12.8 29 29 SSW 8 13 29.96 1015 10 16.0934 0 0
11:51 am 11:51 Sunny 94 34.4 54 12.2 26 26 SSE 8 13 29.93 1014 10 16.0934 0 0
12:51 pm 12:51 Sunny 96 35.6 51 10.6 22 22 VRB 3 6 29.9 1013 10 16.0934 0 0
1:51 pm 13:51 Sunny 99 37.2 48 8.9 18 18 VRB 7 11 29.85 1011 10 16.0934 0 0
2:51 pm 14:51 Sunny 101 38.3 47 8.3 16 16 VRB 5 7 29.81 1010 10 16.0934 0 0
3:51 pm 15:51 Sunny 100 37.8 47 8.3 16 16 W 5 7 29.79 1009 10 16.0934 0 0
4:51 pm 16:51 Sunny 101 38.3 47 8.3 16 16 VRB 6 9 29.76 1008 10 16.0934 0 0
5:51 pm 17:51 Sunny 100 37.8 48 8.9 17 17 SW 3 6 29.74 1007 10 16.0934 0 0
6:51 pm 18:51 Clear 96 35.6 48 8.9 19 19 SE 3 6 29.74 1007 10 16.0934 0 0
7:51 pm 19:51 Clear 93 33.9 48 8.9 21 21 SE 5 7 29.77 1008 10 16.0934 0 0
8:51 pm 20:51 Clear 93 33.9 48 8.9 21 21 SW 12 19 29.75 1008 10 16.0934 0 0
9:51 pm 21:51 Clear 92 33.3 47 8.3 21 21 SSW 8 13 29.77 1008 10 16.0934 0 0
10:51 pm 22:51 Clear 88 31.1 48 8.9 25 25 E 6 9 29.76 1008 10 16.0934 0 0
11:51 pm 23:51 Clear 85 29.4 50 10 30 30 E 8 13 29.76 1008 10 16.0934 0 0

Powered by AerisWeather